Regional Weather Roundup
Issued by NWS Newport/Morehead, NC

Current Version | Previous Version | Graphics & Text | Print | Product List | Glossary On
Versions: 1 2 3 4 5 6 7 8 9 10 11 12 13 14 15 16 17 18 19 20 21 22 23 24 25 26 27 28 29 30 31 32 33 34 35 36 37 38 39 40 41 42 43 44 45 46 47 48 49 50
000 ASUS42 KMHX 211213 RWRMHX WEATHER ROUNDUP FOR EASTERN NORTH CAROLINA NATIONAL WEATHER SERVICE NEWPORT/MOREHEAD CITY NC 700 AM EST TUE FEB 21 2017 NOTE: "FAIR" INDICATES FEW OR NO CLOUDS BELOW 12,000 FEET WITH NO SIGNIFICANT WEATHER AND/OR OBSTRUCTIONS TO VISIBILITY NCZ015>017-031-032-045>047-102-103-211300- NORTH COAST CITY SKY/WX TMP DP RH WIND PRES REMARKS EDENTON MOCLDY 40 38 91 CALM 30.30R ELIZABETH CITY PTCLDY 44 42 93 N7 30.30R KITTY HAWK NOT AVBL MANTEO CLOUDY 48 42 77 E13 30.28S $$ NCZ045>047-081-094-103-104-211300- CENTRAL COAST CITY SKY/WX TMP DP RH WIND PRES REMARKS FRISCO CLEAR 53 47 79 NE7 30.25R $$ NCZ095-097-098-100-101-211300- SOUTHERN COAST CITY SKY/WX TMP DP RH WIND PRES REMARKS BEAUFORT CLOUDY 47 44 90 NE5 30.26R CEDAR ISLAND NOT AVBL JACKSONVILLE PTCLDY 45 43 93 N5 30.26R PINEY ISLAND MOSUNNY N/A N/A N/A NE10 30.26R WILMINGTON CLOUDY 43 42 97 NE6 30.25R $$ NCZ011>013-027>030-043-044-078>080-089-090>093-098-211300- COASTAL PLAIN CITY SKY/WX TMP DP RH WIND PRES REMARKS AHOSKIE N/A 37 35 93 CALM 30.31R CLINTON CLOUDY 46 42 85 CALM 30.26S ELIZABETHTOWN CLOUDY 43 41 91 CALM 30.25R GOLDSBORO CLOUDY 42 41 96 CALM 30.26R GREENVILLE NOT AVBL HAVELOCK CLOUDY 46 42 86 N6 30.27R KENANSVILLE NOT AVBL KINSTON CLOUDY 41 37 87 NE3 30.28S NEW BERN PTCLDY 43 42 97 CALM 30.28R RICHLANDS CLOUDY 41 40 96 N3 30.26S ROCKY MOUNT CLOUDY 41 39 93 N3 30.29R WASHINGTON CLOUDY 37 36 94 CALM 30.29R WHITEVILLE CLOUDY 47 42 80 NE5 30.24S $$ AMZ130-135-150-152-154-156-158-170-250-252-270-ANZ085-086-088-633-658-670-211300- MARINE OBSERVATIONS STATION/POSITION TIME TEMP WIND PRES WAVE SWELL AIR SEA DIR/SP/G HT/PER HT/PER (UTC) (F) (DEG/KT/KT) (MB) (FT/S) (FT/S) CHESAPEAKE LIGHT NOT AVBL 64 E VA BEACH 1150 51 53 80/ 14/ 16 1025.7 4/ 6 2/ 6 DUCK 1136 48 48 30/ 11/ 12 1024.8 2 E DUCK 1200 48 N/A 3/ 6 OREGON INLET 1136 49 51 30/ 11/ 13 1024.9 13E OREGON INLT NOT AVBL HATTERAS CG 1136 53 57 20/ 10/ 14 1023.7 DIAMOND BUOY 1150 63 76 80/ 14/ 19 1023.4 7/ 9 5/ 9 CAPE LOOKOUT 1200 51 20/ 10/ 12 1024.0 BEAUFORT LAB 1136 49 53 10/ 6/ 8 1023.3 30 SE NEW RVR IN 1108 58 50/ 14/ 17 1023.4 30 SE NEW RVR IN 1143 66 N/A 4/ 6 27 SE WRIGHTSVLE 1108 60 63 60/ 14/ 17 1022.7 5 SE WRIGHTSVLE 1108 55 56 60/ 10/ 17 1023.5 225 S CAPE HAT 1150 66 71 40/ 14/ 17 1021.3 5/ 6 2/14 41 SE CHARLESTON 1150 68 67 80/ 16/ 17 1021.1 4/ 6 2/11 $$

USA.gov is the U.S. government's official web portal to all federal, state and local government web resources and services.